This is the latest recevied weather packets stored in our database for station/object VK3CG. If no packets are shown the sender has not sent any weather packets the latest 10 day(s).
| Time | Temp. | Humidity | Pressure | Rain* | Wind** | Luminosity | Snow |
|---|---|---|---|---|---|---|---|
| 1777677358 | 15° C | 53% | 1030.5 hPa | 0 mm | - | 137 W/m² | - |
| 1777676475 | 15° C | 54% | 1030.6 hPa | 0 mm | - | 105 W/m² | - |
| 1777675556 | 14.44° C | 54% | 1030.7 hPa | 0 mm | - | 77 W/m² | - |
| 1777674652 | 14.44° C | 54% | 1030.7 hPa | 0 mm | - | 49 W/m² | - |
| 1777673742 | 14.44° C | 54% | 1030.5 hPa | 0 mm | - | 40 W/m² | - |
| 1777672841 | 14.44° C | 54% | 1030.5 hPa | 0 mm | - | 56 W/m² | - |
| 1777671940 | 14.44° C | 54% | 1030.2 hPa | 0 mm | - | 44 W/m² | - |
| 1777671035 | 14.44° C | 54% | 1030.2 hPa | 0 mm | - | 25 W/m² | - |
| 1777670136 | 14.44° C | 53% | 1030 hPa | 0 mm | - | 5 W/m² | - |
| 1777669232 | 14.44° C | 53% | 1030 hPa | 0 mm | - | 0 W/m² | - |
| 1777668333 | 14.44° C | 53% | 1029.9 hPa | 0 mm | - | 0 W/m² | - |
| 1777667493 | 14.44° C | 53% | 1029.8 hPa | 0 mm | - | 0 W/m² | - |
| 1777666529 | 14.44° C | 52% | 1029.9 hPa | 0 mm | - | 0 W/m² | - |
| 1777665630 | 14.44° C | 52% | 1029.8 hPa | 0 mm | - | 0 W/m² | - |
| 1777664729 | 14.44° C | 52% | 1029.9 hPa | 0 mm | - | 0 W/m² | - |
| 1777663833 | 14.44° C | 52% | 1029.8 hPa | 0 mm | - | 0 W/m² | - |
| 1777662926 | 14.44° C | 52% | 1029.8 hPa | 0 mm | - | 0 W/m² | - |
| 1777662029 | 14.44° C | 52% | 1029.8 hPa | 0 mm | - | 0 W/m² | - |
| 1777661127 | 14.44° C | 52% | 1029.9 hPa | 0 mm | - | 0 W/m² | - |
| 1777660223 | 14.44° C | 53% | 1029.9 hPa | 0 mm | - | 0 W/m² | - |
| 1777659321 | 14.44° C | 53% | 1030.1 hPa | 0 mm | - | 0 W/m² | - |
| 1777658420 | 14.44° C | 53% | 1030 hPa | 0 mm | - | 0 W/m² | - |
| 1777657520 | 14.44° C | 52% | 1030.1 hPa | 0 mm | - | 0 W/m² | - |
| 1777656624 | 15° C | 52% | 1030.1 hPa | 0 mm | - | 0 W/m² | - |
| 1777655722 | 15° C | 51% | 1030.3 hPa | 0 mm | - | 0 W/m² | - |
* Rain latest hour (hover to see other rain measurements)
** Current wind speed in m/s (hover to see current wind gust speed)